Simultaneous Nadir Overpasses (SNOs) Predictions

Prediction of SNOs between LANDSAT-8 and NOAA-19 Satellite Orbit:

Table of predicted SNOs for the next 14.0 days since TLE Epoch: 9/19/2014
Index Date (LANDSAT-8) Time (LANDSAT-8) Lat,Lon (LANDSAT-8) SZA (LANDSAT-8 ) Date (NOAA-19) Time (NOAA-19) Lat,Lon (NOAA-19) SZA (NOAA-19 ) Distance(km) Time Diff (sec)
1 09/20/2014 10:09:27 -72.26,-152.57 108.88 09/20/2014 10:08:39 -72.29,-152.56 108.86 2.35 48
2 09/20/2014 10:58:54 72.18, 14.91 71.05 09/20/2014 10:59:43 72.15, 14.93 71.03 2.74 49
3 09/22/2014 14:53:41 -72.39, 136.60 107.89 09/22/2014 14:52:28 -72.48, 136.14 107.81 17.86 73
4 09/22/2014 15:43:10 72.20, -56.12 71.93 09/22/2014 15:43:30 72.22, -56.12 71.96 3.16 20
5 09/24/2014 20:27:25 72.25,-127.08 72.85 09/24/2014 20:27:16 72.26,-127.10 72.85 0.93 9
6 09/24/2014 21:16:56 -72.08, 40.25 107.32 09/24/2014 21:18:09 -72.10, 40.48 107.30 7.91 73
7 09/27/2014 01:11:40 72.30, 161.94 73.75 09/27/2014 01:11:02 72.30, 161.89 73.75 1.61 38
8 09/27/2014 02:01:10 -72.18, -30.63 106.36 09/27/2014 02:01:56 -72.21, -30.65 106.33 2.69 46
9 09/29/2014 05:55:55 72.33, 90.94 74.64 09/29/2014 05:54:47 72.31, 90.97 74.61 3.20 68
10 09/29/2014 06:45:24 -72.22,-101.64 105.47 09/29/2014 06:45:40 -72.23,-101.59 105.46 1.57 16
11 10/01/2014 11:29:38 -72.29,-172.56 104.54 10/01/2014 11:29:26 -72.30,-172.65 104.53 3.13 12
